TimePDT,TemperatureF,Dew PointF,Humidity,Sea Level PressureIn,VisibilityMPH,Wind Direction,Wind SpeedMPH,Gust SpeedMPH,PrecipitationIn,Events,Conditions,WindDirDegrees,DateUTC
12:15 AM,32.0,28.4,87,30.16,10.0,SE,3.5,-,N/A,,Clear,130,2013-05-18 07:15:00
12:35 AM,32.0,26.6,80,30.16,10.0,East,3.5,-,N/A,,Clear,100,2013-05-18 07:35:00
12:55 AM,32.0,24.8,75,30.16,10.0,SW,3.5,-,N/A,,Clear,220,2013-05-18 07:55:00
1:15 AM,32.0,26.6,80,30.16,10.0,Calm,Calm,-,N/A,,Clear,0,2013-05-18 08:15:00
1:35 AM,30.2,26.6,86,30.16,10.0,Calm,Calm,-,N/A,,Clear,0,2013-05-18 08:35:00
1:55 AM,28.4,26.6,93,30.16,10.0,Calm,Calm,-,N/A,,Clear,0,2013-05-18 08:55:00
2:15 AM,30.2,26.6,86,30.16,10.0,South,3.5,-,N/A,,Clear,180,2013-05-18 09:15:00
2:35 AM,28.4,26.6,93,30.16,10.0,Calm,Calm,-,N/A,,Clear,0,2013-05-18 09:35:00
2:55 AM,28.4,26.6,93,30.16,10.0,Calm,Calm,-,N/A,,Clear,0,2013-05-18 09:55:00
3:15 AM,28.4,24.8,86,30.17,10.0,Calm,Calm,-,N/A,,Clear,0,2013-05-18 10:15:00
3:35 AM,26.6,24.8,93,30.17,10.0,Calm,Calm,-,N/A,,Clear,0,2013-05-18 10:35:00
3:55 AM,26.6,26.6,100,30.17,10.0,Calm,Calm,-,N/A,,Clear,0,2013-05-18 10:55:00
4:15 AM,28.4,24.8,86,30.17,10.0,Calm,Calm,-,N/A,,Clear,0,2013-05-18 11:15:00
4:35 AM,26.6,24.8,93,30.17,10.0,Calm,Calm,-,N/A,,Clear,0,2013-05-18 11:35:00
4:55 AM,26.6,24.8,93,30.17,0.8,Calm,Calm,-,N/A,,Mist,0,2013-05-18 11:55:00
5:15 AM,26.6,24.8,93,30.18,3.0,Calm,Calm,-,N/A,,Clear,0,2013-05-18 12:15:00
5:35 AM,24.8,24.8,100,30.18,10.0,SSE,3.5,-,N/A,,Clear,150,2013-05-18 12:35:00
5:55 AM,24.8,23.0,93,30.18,10.0,Calm,Calm,-,N/A,,Clear,0,2013-05-18 12:55:00
6:15 AM,26.6,24.8,93,30.18,1.5,Calm,Calm,-,N/A,,Clear,0,2013-05-18 13:15:00
6:35 AM,26.6,26.6,100,30.19,10.0,Calm,Calm,-,N/A,,Clear,0,2013-05-18 13:35:00
6:45 AM,28.4,26.6,93,30.19,10.0,Calm,Calm,-,N/A,,Clear,0,2013-05-18 13:45:00
7:55 AM,37.4,28.4,70,30.20,10.0,Calm,Calm,-,N/A,,Clear,0,2013-05-18 14:55:00
8:55 AM,42.8,28.4,57,30.20,10.0,ESE,3.5,-,N/A,,Clear,120,2013-05-18 15:55:00
9:55 AM,51.8,28.4,41,30.19,10.0,NNW,3.5,-,N/A,,Clear,330,2013-05-18 16:55:00
10:55 AM,55.4,28.4,36,30.18,10.0,Calm,Calm,-,N/A,,Partly Cloudy,0,2013-05-18 17:55:00
11:45 AM,57.2,26.6,31,30.18,10.0,West,9.2,-,N/A,,Mostly Cloudy,260,2013-05-18 18:45:00
12:55 PM,60.8,28.4,29,30.17,10.0,WNW,16.1,19.6,N/A,,Mostly Cloudy,300,2013-05-18 19:55:00
1:50 PM,59.0,32.0,36,30.18,10.0,West,18.4,24.2,N/A,,Mostly Cloudy,260,2013-05-18 20:50:00
2:55 PM,59.0,32.0,36,30.18,10.0,West,15.0,20.7,N/A,,Mostly Cloudy,270,2013-05-18 21:55:00
3:50 PM,59.0,32.0,36,30.18,10.0,West,5.8,21.9,N/A,,Mostly Cloudy,260,2013-05-18 22:50:00
5:50 PM,55.4,32.0,41,30.18,10.0,WSW,11.5,-,N/A,,Mostly Cloudy,250,2013-05-19 00:50:00
5:55 PM,55.4,32.0,41,30.18,10.0,West,15.0,-,N/A,,Mostly Cloudy,260,2013-05-19 00:55:00
6:15 PM,55.4,32.0,41,30.19,10.0,West,12.7,18.4,N/A,,Scattered Clouds,280,2013-05-19 01:15:00
6:35 PM,55.4,32.0,41,30.19,10.0,West,12.7,19.6,N/A,,Partly Cloudy,270,2013-05-19 01:35:00
6:55 PM,53.6,30.2,41,30.20,10.0,West,13.8,-,N/A,,Partly Cloudy,280,2013-05-19 01:55:00
7:15 PM,53.6,30.2,41,30.20,10.0,West,11.5,18.4,N/A,,Partly Cloudy,270,2013-05-19 02:15:00
7:35 PM,53.6,30.2,41,30.20,10.0,West,9.2,-,N/A,,Clear,270,2013-05-19 02:35:00
7:55 PM,50.0,30.2,47,30.20,10.0,West,8.1,16.1,N/A,,Clear,260,2013-05-19 02:55:00
8:15 PM,46.4,32.0,57,30.20,10.0,WSW,6.9,-,N/A,,Clear,240,2013-05-19 03:15:00
8:35 PM,48.2,32.0,54,30.20,10.0,West,8.1,-,N/A,,Clear,260,2013-05-19 03:35:00
8:55 PM,46.4,32.0,57,30.21,10.0,West,5.8,-,N/A,,Clear,260,2013-05-19 03:55:00
9:15 PM,46.4,32.0,57,30.22,10.0,Calm,Calm,-,N/A,,Clear,0,2013-05-19 04:15:00
9:35 PM,41.0,32.0,70,30.22,10.0,SSE,4.6,-,N/A,,Clear,150,2013-05-19 04:35:00
9:55 PM,41.0,32.0,70,30.23,10.0,SSE,4.6,-,N/A,,Clear,150,2013-05-19 04:55:00
10:15 PM,39.2,32.0,75,30.23,10.0,ESE,5.8,-,N/A,,Clear,110,2013-05-19 05:15:00
10:35 PM,39.2,32.0,75,30.23,10.0,SE,4.6,-,N/A,,Clear,130,2013-05-19 05:35:00
10:55 PM,37.4,32.0,81,30.23,10.0,WSW,4.6,-,N/A,,Clear,240,2013-05-19 05:55:00
11:15 PM,39.2,32.0,75,30.23,10.0,ESE,4.6,-,N/A,,Clear,110,2013-05-19 06:15:00
11:35 PM,35.6,32.0,87,30.23,10.0,SSW,4.6,-,N/A,,Clear,200,2013-05-19 06:35:00
11:55 PM,35.6,32.0,87,30.24,10.0,Calm,Calm,-,N/A,,Clear,0,2013-05-19 06:55:00